Find Local Weather

World > North America > United States > North Carolina

Crabtree Valley, North Carolina Regional Weather

Lat: 35.86N, Lon: 78.69W
Wx Zone: NCZ041
Warning FLW WEATHER ALERT - (More Info. Click Here) Warning
Feedback

Crabtree Valley, NC Regional Weather

Expires:201905270900;;532815
ASUS42 KRAH 270810
RWRRAH
NORTH CAROLINA WEATHER ROUNDUP
NATIONAL WEATHER SERVICE RALEIGH NC
400 AM EDT MON MAY 27 2019

NOTE: "FAIR" INDICATES FEW OR NO CLOUDS BELOW 12,000 FEET WITH NO
SIGNIFICANT WEATHER AND/OR OBSTRUCTIONS TO VISIBILITY.


NCZ021-022-025-041-071-084-088-270900-
CENTRAL NORTH CAROLINA
  
CITY           SKY/WX    TMP DP  RH WIND       PRES   REMARKS
CHARLOTTE      FAIR      70  65  84 CALM      30.00F                  
GREENSBORO     MOCLDY    72  62  71 CALM      29.99F                  
WINSTON-SALEM  FAIR      74  60  61 NW6       30.01F                  
RALEIGH-DURHAM MOCLDY    74  64  71 CALM      29.96F                  
FORT BRAGG     FAIR      74  66  76 N3        29.95R                  
FAYETTEVILLE   FAIR      76  64  66 NW8       29.94S                  
BURLINGTON     FAIR      74  61  63 CALM      29.98F                  
ROXBORO        FAIR      70  61  73 CALM      29.98F                  
HENDERSON      FAIR      71  61  71 CALM      29.95S                  
LOUISBURG      FAIR      73  63  68 CALM      29.98R                  
LAURINBURG     FAIR      70  65  84 W3        29.96S                  
$$
 

SKY/WX - Weather  TMP - Temperature  DP - Dew Point  RH - Relative Humidity
WIND - Wind Direction/Speed PRES - Barometric Pressure VSB - Visibility
WCI - Wind Chill Index E13G22 Wind - East Wind 13 mph/Gusts of 22 mph